AirNav   Pilot Hours Calculator
 
 896 users online  

4TX2 Stage Coach Hills Airport
Westlake, Texas, USA

GOING TO WESTLAKE?


FAA INFORMATION EFFECTIVE 28 FEBRUARY 2019

Location

FAA Identifier: 4TX2
Lat/Long: 32-58-00.4490N / 097-14-01.0530W
32-58.007483N / 097-14.017550W
32.9667914 / -97.2336258
(estimated)
Elevation: 684 ft. / 208 m (estimated)
Variation: 07E (1985)
From city: 2 miles SW of WESTLAKE, TX
Time zone: UTC -6 (UTC -5 during Daylight Saving Time)
Zip code: 76262

Airport Operations

Airport use: Private use. Permission required prior to landing
Activation date: 07/1973
Control tower: no
ARTCC: FORT WORTH CENTER
FSS: FORT WORTH FLIGHT SERVICE STATION
Attendance: UNATNDD
Wind indicator: yes
Segmented circle: yes

Airport Communications

WX ASOS at AFW (5 nm W): PHONE 817-491-6188
WX ASOS at DFW (11 nm SE): PHONE 972-615-2608
WX ASOS at FTW (11 nm SW): PHONE 817-740-3346
WX ASOS at DTO (14 nm N): 119.325 (940-383-8457)
WX AWOS-3P at GPM (19 nm SE): 118.475 (972-606-1433)
WX ASOS at GKY (19 nm S): 127.375 (817-557-0251)
WX AWOS-3 at ADS (20 nm E): PHONE 972-386-4855

Nearby radio navigation aids

VOR radial/distance  VOR name  Freq  Var
FUZr324/5.4RANGER VORTAC115.7006E
TTTr295/11.4MAVERICK VOR/DME113.1006E
CVEr279/17.2COWBOY VOR/DME116.2006E

 
NDB name  Hdg/Dist  Freq  Var  ID
MUFIN050/8.336508EFT ..-. -
MESQUITE282/36.724803EPQF .--. --.- ..-.

Airport Services

Airframe service: NONE
Powerplant service: NONE

Runway Information

Runway 17/35

Dimensions: 2700 x 90 ft. / 823 x 27 m
Surface: turf
RUNWAY 17  RUNWAY 35
Traffic pattern: rightleft

Airport Ownership and Management from official FAA records

Ownership: Privately-owned
Owner: STEVE THORNTON
13187 THORTON DRIVE
ROANOKE, TX 76262
Phone (817) 995-9647
Manager: J. L. HASKINS
5920 STEVE COURT
WESTLAKE , TX 76262
Phone 817-430-1987

Airport Operational Statistics

Aircraft based on the field: 17
Single engine airplanes: 16
Multi engine airplanes: 1
    

Additional Remarks

TREES ALONG WESTERN EDGE OF RY.
FOR CD CTC REGIONAL APCH AT 972-615-2799.

Instrument Procedures

There are no published instrument procedures at 4TX2.

Some nearby airports with instrument procedures:

KAFW - Fort Worth Alliance Airport (5 nm W)
KDFW - Dallas-Fort Worth International Airport (11 nm SE)
KFTW - Fort Worth Meacham International Airport (11 nm SW)
4T2 - Kenneth Copeland Airport (13 nm W)
KDTO - Denton Enterprise Airport (14 nm N)
KNFW - Fort Worth Naval Air Station JRB (Carswell Field) Airport (16 nm SW)
KGPM - Grand Prairie Municipal Airport (19 nm SE)
KGKY - Arlington Municipal Airport (19 nm S)
KADS - Addison Airport (20 nm E)
 
Loc | Ops | Rwys | IFR | FBO | Links
Com | Nav | Svcs | Stats | Notes
Area around 4TX2 (Stage Coach Hills Airport)
 
Road maps at: MapQuest Bing Google
 
Aerial photo
WARNING: Photo may not be current or correct
Aerial photo of 4TX2 (Stage Coach Hills Airport)
Do you have a better or more recent aerial photo of Stage Coach Hills Airport that you would like to share? If so, please send us your photo.

 
Sectional chart

 
Airport distance calculator
Flying to Stage Coach Hills Airport? Find the distance to fly.

From to 4TX2

Sunrise and sunset
Times for 23-Mar-2019
 Local
(UTC-5)
 Zulu
(UTC)
Morning civil twilight07:0512:05
Sunrise07:3012:30
Sunset19:4100:41
Evening civil twilight20:0601:06

Current date and time
Zulu (UTC)  23-Mar-2019 14:17:40
Local (UTC-5)  23-Mar-2019 09:17:40
 
METAR
KAFW 
4nm W 
231353Z 18012KT 10SM -RA BKN046 OVC060 17/11 A3004 RMK AO2 RAE1257B51 SLP168 CB DSNT N-NE MOV NE P0000 T01670106
KFTW 
10nm SW 
231353Z 17011KT 10SM BKN048 BKN060 OVC075 16/11 A3005 RMK AO2 SLP170 T01610111
KDFW 
12nm E 
231353Z 19013KT 10SM OVC043 17/11 A3005 RMK AO2 RAE02 SLP170 P0000 T01670106
KDTO 
14nm N 
231353Z 17009KT 10SM -RA BKN042 OVC050 16/10 A3004 RMK AO2 LTG DSNT N AND NE RAB1255E23B50 SLP168 P0000 T01560100
KNFW 
16nm SW 
231352Z 18012KT 10SM BKN049 BKN065 OVC080 18/11 A3005 RMK AO2 SLP160 T01780111 VISNO N $
KGPM 
18nm SE 
231350Z 18006KT 10SM SCT049 16/11 A3009
KGKY 
19nm S 
231353Z 17009KT 10SM SCT047 BKN055 OVC085 17/11 A3007 RMK AO2 SLP176 T01670111
TAF
KAFW 
4nm W 
231140Z 2312/2412 17011KT P6SM VCSH BKN040 BKN150 TEMPO 2312/2316 -RA BKN045 FM231600 18015G20KT P6SM BKN035 OVC060 FM232300 17014KT P6SM VCSH SCT030 BKN050 FM240500 17015G20KT P6SM BKN020
KFTW 
10nm SW 
231140Z 2312/2412 17011KT P6SM VCSH BKN040 BKN150 TEMPO 2312/2316 -RA BKN045 FM231600 18015G20KT P6SM BKN035 OVC060 FM232300 17014KT P6SM VCSH SCT030 BKN050 FM240500 17015G20KT P6SM BKN020
KDFW 
12nm E 
231140Z 2312/2418 17011KT P6SM VCSH BKN040 BKN150 TEMPO 2312/2316 -RA BKN045 FM231600 18015G20KT P6SM BKN035 OVC060 FM232300 17014KT P6SM VCSH SCT030 BKN050 FM240500 17015G20KT P6SM BKN020
KNFW 
16nm SW 
2307/2407 VRB06KT 9999 FEW040 FEW060 543009 543902 QNH2996INS BECMG 2309/2311 17010KT 9999 VCTS BKN030CB OVC050 500000 QNH2994INS TEMPO 2312/2316 VRB15G25KT 8000 -TSRA OVC020CB FM231600 VRB06KT 9999 VCTS BKN020CB OVC040 QNH2993INS TEMPO 2317/2320 VRB15G25KT 8000 -TSRA OVC020CB BECMG 2320/2322 17015G20KT 9999 NSW BKN030 OVC050 QNH2990INS BECMG 2402/2404 18010KT 9999 BKN015 QNH2995INS AUTOMATED SENSOR METWATCH 2307 TIL 2311 T14/2313Z T22/2321Z FN00204
KGKY 
19nm S 
231140Z 2312/2412 17011KT P6SM VCSH BKN040 BKN150 TEMPO 2312/2316 -RA BKN045 FM231600 18015G20KT P6SM BKN035 OVC060 FM232300 17014KT P6SM VCSH SCT030 BKN050 FM240500 17015G20KT P6SM BKN020
NOTAMs
Click for the latest NOTAMs
NOTAMs are issued by the DoD/FAA and will open in a separate window not controlled by AirNav.

 

 
 

Would you like to see your business listed on this page?

 If your business provides an interesting product or service to pilots, flight crews, aircraft, or users of the Stage Coach Hills Airport, you should consider listing it here.  To start the listing process, click on the button below
 
Add a business
 

Other Pages about Stage Coach Hills Airport

Update a link
 
Copyright © AirNav, LLC. All rights reserved. Privacy Policy  Contact